Minneapolis Crystal, MN

12:13 AM CDT on August 23, 2017 (GMT -0500)
Crystal

Weather History for KMIC - November, 2013

Change the Weather History Date:

Saturday, November 9, 2013

  Actual Average Record
Temperature  
Mean Temperature 40 °F -  
Max Temperature 44 °F 43 °F 69 °F (1999)
Min Temperature 36 °F 28 °F 19 °F (2003)
Degree Days  
Heating Degree Days 25    
Moisture  
Dew Point 31 °F    
Average Humidity 69    
Maximum Humidity 81    
Minimum Humidity 53    
Precipitation  
Precipitation 0.00 in - - ()
Sea Level Pressure  
Sea Level Pressure 29.89 in    
Wind  
Wind Speed 15 mph (West)    
Max Wind Speed 24 mph    
Max Gust Speed 32 mph    
Visibility 10 miles    
Events      
Averages and records for this station are not official NWS values.
T = Trace of Precipitation, MM = Missing Value Source: NWS Daily Summary

Daily Weather History Graph

Daily Weather History Graph

Search for Another Location

Airport or City:

Trip Planner

Search our weather history database for the weather conditions in past years. The results will help you decide how hot, cold, wet, or windy it might be!

Date:

Astronomy

Nov. 09, 2013 Rise Set
Actual Time 7:03 AM CST 4:50 PM CST
Civil Twilight 6:32 AM CST 5:21 PM CST
Nautical Twilight 5:56 AM CST 5:57 PM CST
Astronomical Twilight 5:22 AM CST 6:31 PM CST
Moon 12:37 PM CST (11/9) 11:25 PM CST (11/9)
Length of Visible Light 10h 49m
Length of Day
9h 47m
Waxing Crescent, 44% of the Moon is Illuminated
Nov 9
Waxing Crescent
Nov 9
First Quarter
Nov 17
Full
Nov 25
Last Quarter
Dec 2
New

Hourly Weather History & Observations

Time (CST) Temp. Windchill Dew Point Humidity Pressure Visibility Wind Dir Wind Speed Gust Speed Precip Events Conditions
12:53 AM 43.0 °F 36.4 °F 37.0 °F 80% 29.64 in 10.0 mi West 12.7 mph - 0.00 in   Overcast
1:07 AM 42.8 °F 36.6 °F 37.4 °F 81% 29.63 in 10.0 mi West 11.5 mph - N/A   Overcast
1:21 AM 42.8 °F 36.6 °F 37.4 °F 81% 29.63 in 10.0 mi West 11.5 mph 20.7 mph N/A   Overcast
1:53 AM 43.0 °F 36.0 °F 37.0 °F 80% 29.67 in 10.0 mi West 13.8 mph 21.9 mph N/A   Overcast
2:53 AM 43.0 °F 35.4 °F 36.0 °F 76% 29.69 in 10.0 mi West 16.1 mph 19.6 mph N/A   Overcast
3:16 AM 42.8 °F 36.6 °F 35.6 °F 76% 29.67 in 10.0 mi West 11.5 mph 21.9 mph N/A   Overcast
3:53 AM 41.0 °F 33.5 °F 35.1 °F 79% 29.70 in 10.0 mi West 13.8 mph - N/A   Overcast
4:53 AM 42.1 °F 35.7 °F 35.1 °F 76% 29.72 in 10.0 mi West 11.5 mph 18.4 mph N/A   Overcast
5:53 AM 43.0 °F 36.0 °F 35.1 °F 74% 29.74 in 10.0 mi WNW 13.8 mph 18.4 mph N/A   Overcast
6:24 AM 42.8 °F 36.6 °F 35.6 °F 76% 29.74 in 10.0 mi West 11.5 mph 20.7 mph N/A   Overcast
6:38 AM 42.8 °F 35.4 °F 35.6 °F 76% 29.75 in 10.0 mi West 15.0 mph - N/A   Overcast
6:53 AM 43.0 °F 36.4 °F 36.0 °F 76% 29.77 in 10.0 mi West 12.7 mph 20.7 mph N/A   Overcast
7:53 AM 43.0 °F 34.8 °F 34.0 °F 71% 29.80 in 10.0 mi WNW 18.4 mph 24.2 mph N/A   Overcast
8:53 AM 43.0 °F 34.2 °F 34.0 °F 71% 29.83 in 10.0 mi WNW 20.7 mph 28.8 mph N/A   Overcast
9:53 AM 44.1 °F 36.2 °F 34.0 °F 68% 29.87 in 10.0 mi West 18.4 mph 25.3 mph N/A   Overcast
10:53 AM 43.0 °F 36.0 °F 32.0 °F 65% 29.91 in 10.0 mi WNW 13.8 mph 23.0 mph N/A   Overcast
11:53 AM 43.0 °F 34.0 °F 32.0 °F 65% 29.93 in 10.0 mi West 21.9 mph 31.1 mph N/A   Overcast
12:32 PM 42.8 °F 33.3 °F 30.2 °F 61% 29.92 in 10.0 mi West 24.2 mph 29.9 mph N/A   Overcast
12:53 PM 42.1 °F 33.9 °F 28.0 °F 58% 29.94 in 10.0 mi West 17.3 mph 32.2 mph N/A   Overcast
1:53 PM 41.0 °F 31.6 °F 27.0 °F 57% 29.97 in 10.0 mi WNW 20.7 mph 31.1 mph N/A   Overcast
2:53 PM 39.9 °F 30.2 °F 27.0 °F 60% 30.00 in 10.0 mi WNW 20.7 mph 28.8 mph N/A   Overcast
3:53 PM 41.0 °F 32.5 °F 25.0 °F 53% 30.01 in 10.0 mi West 17.3 mph 24.2 mph N/A   Overcast
4:53 PM 39.9 °F 31.4 °F 26.1 °F 58% 30.04 in 10.0 mi West 16.1 mph 25.3 mph N/A   Overcast
5:53 PM 39.0 °F 29.3 °F 24.1 °F 55% 30.07 in 10.0 mi WNW 19.6 mph 31.1 mph N/A   Overcast
6:53 PM 37.9 °F 29.2 °F 25.0 °F 60% 30.10 in 10.0 mi WNW 15.0 mph - N/A   Overcast
7:53 PM 37.9 °F 28.5 °F 25.0 °F 60% 30.12 in 10.0 mi WNW 17.3 mph 26.5 mph N/A   Overcast
8:53 PM 36.0 °F 28.0 °F 26.1 °F 67% 30.15 in 10.0 mi WNW 11.5 mph 19.6 mph N/A   Mostly Cloudy
9:53 PM 37.0 °F 28.5 °F 27.0 °F 67% 30.17 in 10.0 mi WNW 13.8 mph - N/A   Overcast
10:53 PM 37.0 °F 29.8 °F 27.0 °F 67% 30.19 in 10.0 mi WNW 10.4 mph - N/A   Overcast
11:53 PM 37.9 °F 30.5 °F 27.0 °F 65% 30.21 in 10.0 mi WNW 11.5 mph 18.4 mph N/A   Overcast